Time,TemperatureF,DewpointF,PressureIn,WindDirection,WindDirectionDegrees,WindSpeedMPH,WindSpeedGustMPH,Humidity,HourlyPrecipIn,Conditions,Clouds,dailyrainin,SoftwareType,DateUTC
2013-01-18 00:03:00,20.0,15.0,30.36,West,264,4.0,7.0,80,0.00,,,0.00,,2013-01-18 05:03:00,
2013-01-18 00:12:00,20.0,15.0,30.36,West,264,4.0,7.0,80,0.00,,,0.00,,2013-01-18 05:12:00,
2013-01-18 00:22:00,20.0,15.0,30.35,West,259,5.0,8.0,80,0.00,,,0.00,,2013-01-18 05:22:00,
2013-01-18 00:33:00,21.0,16.0,30.35,WSW,258,3.0,8.0,80,0.00,,,0.00,,2013-01-18 05:33:00,
2013-01-18 00:42:00,21.0,16.0,30.35,WSW,258,3.0,8.0,80,0.00,,,0.00,,2013-01-18 05:42:00,
2013-01-18 00:53:00,21.0,16.0,30.36,WSW,251,5.0,8.0,80,0.00,,,0.00,,2013-01-18 05:53:00,
2013-01-18 01:02:00,21.0,16.0,30.36,WSW,256,7.0,13.0,80,0.00,,,0.00,,2013-01-18 06:02:00,
2013-01-18 01:12:00,21.0,16.0,30.36,WSW,256,7.0,13.0,80,0.00,,,0.00,,2013-01-18 06:12:00,
2013-01-18 01:22:00,21.0,16.0,30.36,WSW,256,7.0,13.0,80,0.00,,,0.00,,2013-01-18 06:22:00,
2013-01-18 01:33:00,21.0,16.0,30.37,West,259,8.0,12.0,79,0.00,,,0.00,,2013-01-18 06:33:00,
2013-01-18 01:43:00,21.0,16.0,30.37,West,259,8.0,12.0,79,0.00,,,0.00,,2013-01-18 06:43:00,
2013-01-18 01:53:00,21.0,15.0,30.38,WSW,250,7.0,10.0,78,0.00,,,0.00,,2013-01-18 06:53:00,
2013-01-18 02:02:00,21.0,15.0,30.38,West,259,5.0,12.0,78,0.00,,,0.00,,2013-01-18 07:02:00,
2013-01-18 02:12:00,21.0,15.0,30.38,West,259,5.0,12.0,78,0.00,,,0.00,,2013-01-18 07:12:00,
2013-01-18 02:22:00,20.0,14.0,30.38,WSW,258,4.0,8.0,78,0.00,,,0.00,,2013-01-18 07:22:00,
2013-01-18 02:32:00,20.0,15.0,30.39,West,260,6.0,10.0,79,0.00,,,0.00,,2013-01-18 07:32:00,
2013-01-18 02:42:00,20.0,15.0,30.39,West,260,6.0,10.0,79,0.00,,,0.00,,2013-01-18 07:42:00,
2013-01-18 02:52:00,20.0,15.0,30.40,West,262,7.0,10.0,79,0.00,,,0.00,,2013-01-18 07:52:00,
2013-01-18 03:02:00,20.0,15.0,30.41,WSW,256,9.0,11.0,80,0.00,,,0.00,,2013-01-18 08:02:00,
2013-01-18 03:12:00,20.0,15.0,30.41,WSW,256,9.0,11.0,80,0.00,,,0.00,,2013-01-18 08:12:00,
2013-01-18 03:22:00,20.0,15.0,30.40,West,259,7.0,10.0,80,0.00,,,0.00,,2013-01-18 08:22:00,
2013-01-18 03:32:00,20.0,15.0,30.40,West,259,5.0,8.0,80,0.00,,,0.00,,2013-01-18 08:32:00,
2013-01-18 03:42:00,20.0,15.0,30.40,West,259,5.0,8.0,80,0.00,,,0.00,,2013-01-18 08:42:00,
2013-01-18 03:53:00,20.0,15.0,30.41,West,259,6.0,7.0,80,0.00,,,0.00,,2013-01-18 08:53:00,
2013-01-18 04:03:00,20.0,15.0,30.41,West,259,7.0,11.0,80,0.00,,,0.00,,2013-01-18 09:03:00,
2013-01-18 04:12:00,20.0,15.0,30.41,West,259,7.0,11.0,80,0.00,,,0.00,,2013-01-18 09:12:00,
2013-01-18 04:22:00,20.0,15.0,30.41,WSW,257,6.0,9.0,80,0.00,,,0.00,,2013-01-18 09:22:00,
2013-01-18 04:33:00,20.0,15.0,30.40,WSW,255,5.0,10.0,81,0.00,,,0.00,,2013-01-18 09:33:00,
2013-01-18 04:42:00,20.0,15.0,30.40,WSW,255,5.0,10.0,81,0.00,,,0.00,,2013-01-18 09:42:00,
2013-01-18 04:53:00,19.0,14.0,30.39,WSW,255,5.0,6.0,81,0.00,,,0.00,,2013-01-18 09:53:00,
2013-01-18 05:03:00,19.0,14.0,30.39,WSW,254,6.0,7.0,82,0.00,,,0.00,,2013-01-18 10:03:00,
2013-01-18 05:12:00,19.0,14.0,30.39,WSW,254,6.0,7.0,82,0.00,,,0.00,,2013-01-18 10:12:00,
2013-01-18 05:22:00,19.0,15.0,30.39,WSW,250,5.0,9.0,83,0.00,,,0.00,,2013-01-18 10:22:00,
2013-01-18 05:32:00,19.0,15.0,30.39,WSW,250,5.0,6.0,83,0.00,,,0.00,,2013-01-18 10:32:00,
2013-01-18 05:43:00,19.0,15.0,30.39,WSW,250,5.0,6.0,83,0.00,,,0.00,,2013-01-18 10:43:00,
2013-01-18 05:53:00,19.0,15.0,30.39,WSW,250,4.0,6.0,83,0.00,,,0.00,,2013-01-18 10:53:00,
2013-01-18 06:02:00,19.0,15.0,30.40,WSW,249,5.0,7.0,83,0.00,,,0.00,,2013-01-18 11:02:00,
2013-01-18 06:12:00,19.0,15.0,30.40,WSW,249,5.0,7.0,83,0.00,,,0.00,,2013-01-18 11:12:00,
2013-01-18 06:23:00,19.0,15.0,30.40,WSW,250,0.0,7.0,83,0.00,,,0.00,,2013-01-18 11:23:00,
2013-01-18 06:32:00,19.0,15.0,30.40,WSW,250,5.0,7.0,83,0.00,,,0.00,,2013-01-18 11:32:00,
2013-01-18 06:42:00,19.0,15.0,30.40,WSW,250,5.0,7.0,83,0.00,,,0.00,,2013-01-18 11:42:00,
2013-01-18 06:53:00,19.0,15.0,30.40,WSW,250,4.0,5.0,83,0.00,,,0.00,,2013-01-18 11:53:00,
2013-01-18 07:03:00,19.0,15.0,30.40,WSW,249,6.0,6.0,83,0.00,,,0.00,,2013-01-18 12:03:00,
2013-01-18 07:12:00,19.0,15.0,30.40,WSW,249,6.0,6.0,83,0.00,,,0.00,,2013-01-18 12:12:00,
2013-01-18 07:23:00,19.0,15.0,30.41,WSW,240,6.0,10.0,83,0.00,,,0.00,,2013-01-18 12:23:00,
2013-01-18 07:33:00,19.0,14.0,30.41,WSW,240,3.0,6.0,82,0.00,,,0.00,,2013-01-18 12:33:00,
2013-01-18 07:43:00,19.0,14.0,30.41,WSW,240,3.0,6.0,82,0.00,,,0.00,,2013-01-18 12:43:00,
2013-01-18 07:53:00,19.0,14.0,30.40,WSW,240,5.0,6.0,82,0.00,,,0.00,,2013-01-18 12:53:00,
2013-01-18 08:03:00,19.0,15.0,30.41,WSW,240,3.0,5.0,83,0.00,,,0.00,,2013-01-18 13:03:00,
2013-01-18 08:12:00,19.0,15.0,30.41,WSW,240,3.0,5.0,83,0.00,,,0.00,,2013-01-18 13:12:00,
2013-01-18 08:23:00,19.0,15.0,30.41,WSW,240,4.0,5.0,84,0.00,,,0.00,,2013-01-18 13:23:00,
2013-01-18 08:33:00,19.0,15.0,30.41,SW,234,5.0,7.0,85,0.00,,,0.00,,2013-01-18 13:33:00,
2013-01-18 08:43:00,19.0,15.0,30.41,SW,234,5.0,7.0,85,0.00,,,0.00,,2013-01-18 13:43:00,
2013-01-18 08:53:00,19.0,16.0,30.41,SSW,211,6.0,9.0,86,0.00,,,0.00,,2013-01-18 13:53:00,
2013-01-18 09:03:00,19.0,16.0,30.41,SSW,211,6.0,9.0,86,0.00,,,0.00,,2013-01-18 14:03:00,
2013-01-18 09:12:00,19.0,16.0,30.41,SSW,211,6.0,9.0,86,0.00,,,0.00,,2013-01-18 14:12:00,
2013-01-18 09:23:00,22.0,18.0,30.42,SW,217,7.0,11.0,85,0.00,,,0.00,,2013-01-18 14:23:00,
2013-01-18 09:33:00,23.0,19.0,30.42,WSW,239,12.0,13.0,83,0.00,,,0.00,,2013-01-18 14:33:00,
2013-01-18 09:43:00,23.0,19.0,30.42,WSW,239,12.0,13.0,83,0.00,,,0.00,,2013-01-18 14:43:00,
2013-01-18 09:53:00,24.0,19.0,30.42,WSW,249,8.0,16.0,82,0.00,,,0.00,,2013-01-18 14:53:00,
2013-01-18 10:03:00,25.0,20.0,30.42,WSW,242,10.0,12.0,81,0.00,,,0.00,,2013-01-18 15:03:00,
2013-01-18 10:13:00,25.0,20.0,30.42,WSW,242,10.0,12.0,81,0.00,,,0.00,,2013-01-18 15:13:00,
2013-01-18 10:23:00,25.0,19.0,30.42,WSW,244,9.0,14.0,79,0.00,,,0.00,,2013-01-18 15:23:00,
2013-01-18 10:34:00,26.0,20.0,30.42,SW,230,11.0,13.0,79,0.00,,,0.00,,2013-01-18 15:34:00,
2013-01-18 10:43:00,26.0,20.0,30.42,SW,230,11.0,13.0,79,0.00,,,0.00,,2013-01-18 15:43:00,
2013-01-18 10:54:00,27.0,21.0,30.42,SSW,207,11.0,15.0,78,0.00,,,0.00,,2013-01-18 15:54:00,
2013-01-18 11:03:00,28.0,22.0,30.41,SW,232,13.0,16.0,77,0.00,,,0.00,,2013-01-18 16:03:00,
2013-01-18 11:13:00,28.0,22.0,30.41,SW,232,13.0,16.0,77,0.00,,,0.00,,2013-01-18 16:13:00,
2013-01-18 11:23:00,29.0,22.0,30.40,SW,223,16.0,20.0,75,0.00,,,0.00,,2013-01-18 16:23:00,
2013-01-18 11:33:00,30.0,23.0,30.40,SSW,210,16.0,18.0,74,0.00,,,0.00,,2013-01-18 16:33:00,
2013-01-18 11:42:00,30.0,23.0,30.40,SSW,210,16.0,18.0,74,0.00,,,0.00,,2013-01-18 16:42:00,
2013-01-18 11:53:00,30.0,23.0,30.39,SW,220,17.0,20.0,74,0.00,,,0.00,,2013-01-18 16:53:00,
2013-01-18 12:03:00,30.0,22.0,30.38,WSW,237,17.0,21.0,72,0.00,,,0.00,,2013-01-18 17:03:00,
2013-01-18 12:13:00,30.0,22.0,30.38,WSW,237,17.0,21.0,72,0.00,,,0.00,,2013-01-18 17:13:00,
2013-01-18 12:23:00,32.0,24.0,30.37,SW,229,19.0,24.0,71,0.00,,,0.00,,2013-01-18 17:23:00,
2013-01-18 12:33:00,32.0,24.0,30.35,SW,215,19.0,24.0,71,0.00,,,0.00,,2013-01-18 17:33:00,
2013-01-18 12:43:00,32.0,24.0,30.35,SW,215,19.0,24.0,71,0.00,,,0.00,,2013-01-18 17:43:00,
2013-01-18 12:53:00,32.0,23.0,30.35,SW,217,19.0,27.0,69,0.00,,,0.00,,2013-01-18 17:53:00,
2013-01-18 13:03:00,33.0,24.0,30.33,SW,215,20.0,26.0,70,0.00,,,0.00,,2013-01-18 18:03:00,
2013-01-18 13:13:00,33.0,24.0,30.33,SW,215,20.0,26.0,70,0.00,,,0.00,,2013-01-18 18:13:00,
2013-01-18 13:23:00,33.0,24.0,30.32,SSW,210,18.0,22.0,70,0.00,,,0.00,,2013-01-18 18:23:00,
2013-01-18 13:33:00,34.0,25.0,30.31,SW,215,15.0,22.0,70,0.00,,,0.00,,2013-01-18 18:33:00,
2013-01-18 13:43:00,34.0,25.0,30.31,SW,215,15.0,22.0,70,0.00,,,0.00,,2013-01-18 18:43:00,
2013-01-18 13:53:00,34.0,24.0,30.29,SW,224,17.0,23.0,67,0.00,,,0.00,,2013-01-18 18:53:00,
2013-01-18 14:03:00,34.0,24.0,30.28,SW,217,21.0,27.0,67,0.00,,,0.00,,2013-01-18 19:03:00,
2013-01-18 14:13:00,34.0,24.0,30.28,SW,217,21.0,27.0,67,0.00,,,0.00,,2013-01-18 19:13:00,
2013-01-18 14:23:00,35.0,26.0,30.27,SW,217,16.0,22.0,68,0.00,,,0.00,,2013-01-18 19:23:00,
2013-01-18 14:33:00,35.0,25.0,30.27,SW,219,22.0,26.0,66,0.00,,,0.00,,2013-01-18 19:33:00,
2013-01-18 14:43:00,35.0,25.0,30.27,SW,219,22.0,26.0,66,0.00,,,0.00,,2013-01-18 19:43:00,
2013-01-18 14:53:00,36.0,26.0,30.26,SSW,203,16.0,23.0,66,0.00,,,0.00,,2013-01-18 19:53:00,
2013-01-18 15:03:00,36.0,26.0,30.25,SW,215,16.0,30.0,67,0.00,,,0.00,,2013-01-18 20:03:00,
2013-01-18 15:13:00,36.0,26.0,30.25,SW,215,16.0,30.0,67,0.00,,,0.00,,2013-01-18 20:13:00,
2013-01-18 15:23:00,35.0,24.0,30.24,SSW,199,21.0,25.0,65,0.00,,,0.00,,2013-01-18 20:23:00,
2013-01-18 15:33:00,35.0,24.0,30.22,SSW,208,20.0,28.0,65,0.00,,,0.00,,2013-01-18 20:33:00,
2013-01-18 15:43:00,35.0,24.0,30.22,SSW,208,20.0,28.0,65,0.00,,,0.00,,2013-01-18 20:43:00,
2013-01-18 15:53:00,36.0,25.0,30.22,SW,229,22.0,24.0,64,0.00,,,0.00,,2013-01-18 20:53:00,
2013-01-18 16:03:00,36.0,25.0,30.20,SSW,207,20.0,27.0,64,0.00,,,0.00,,2013-01-18 21:03:00,
2013-01-18 16:13:00,36.0,25.0,30.20,SSW,207,20.0,27.0,64,0.00,,,0.00,,2013-01-18 21:13:00,
2013-01-18 16:23:00,36.0,25.0,30.19,SW,215,20.0,32.0,64,0.00,,,0.00,,2013-01-18 21:23:00,
2013-01-18 16:33:00,36.0,25.0,30.19,SW,215,21.0,27.0,65,0.00,,,0.00,,2013-01-18 21:33:00,
2013-01-18 16:43:00,36.0,25.0,30.19,SW,215,21.0,27.0,65,0.00,,,0.00,,2013-01-18 21:43:00,
2013-01-18 16:53:00,36.0,25.0,30.18,SSW,209,16.0,26.0,65,0.00,,,0.00,,2013-01-18 21:53:00,
2013-01-18 17:03:00,35.0,24.0,30.17,SSW,207,19.0,26.0,64,0.00,,,0.00,,2013-01-18 22:03:00,
2013-01-18 17:12:00,35.0,24.0,30.17,SSW,207,19.0,26.0,64,0.00,,,0.00,,2013-01-18 22:12:00,
2013-01-18 17:23:00,35.0,24.0,30.16,SSW,210,19.0,25.0,65,0.00,,,0.00,,2013-01-18 22:23:00,
2013-01-18 17:33:00,35.0,25.0,30.16,SSW,212,19.0,25.0,66,0.00,,,0.00,,2013-01-18 22:33:00,
2013-01-18 17:43:00,35.0,25.0,30.16,SSW,212,19.0,25.0,66,0.00,,,0.00,,2013-01-18 22:43:00,
2013-01-18 17:53:00,34.0,25.0,30.15,SSW,210,17.0,24.0,68,0.00,,,0.00,,2013-01-18 22:53:00,
2013-01-18 18:03:00,34.0,25.0,30.15,SSW,208,21.0,26.0,68,0.00,,,0.00,,2013-01-18 23:03:00,
2013-01-18 18:12:00,34.0,25.0,30.15,SSW,208,21.0,26.0,68,0.00,,,0.00,,2013-01-18 23:12:00,
2013-01-18 18:23:00,34.0,25.0,30.14,SSW,204,20.0,28.0,68,0.00,,,0.00,,2013-01-18 23:23:00,
2013-01-18 18:33:00,34.0,25.0,30.14,SSW,207,21.0,27.0,68,0.00,,,0.00,,2013-01-18 23:33:00,
2013-01-18 18:43:00,34.0,25.0,30.14,SSW,207,21.0,27.0,68,0.00,,,0.00,,2013-01-18 23:43:00,
2013-01-18 18:53:00,34.0,25.0,30.13,SSW,205,22.0,26.0,69,0.00,,,0.00,,2013-01-18 23:53:00,
2013-01-18 19:02:00,34.0,25.0,30.12,SSW,206,20.0,30.0,68,0.00,,,0.00,,2013-01-19 00:02:00,
2013-01-18 19:12:00,34.0,25.0,30.12,SSW,206,20.0,30.0,68,0.00,,,0.00,,2013-01-19 00:12:00,
2013-01-18 19:23:00,34.0,24.0,30.11,SSW,207,23.0,28.0,67,0.00,,,0.00,,2013-01-19 00:23:00,
2013-01-18 19:33:00,35.0,25.0,30.11,SSW,205,22.0,32.0,66,0.00,,,0.00,,2013-01-19 00:33:00,
2013-01-18 19:43:00,35.0,25.0,30.11,SSW,205,22.0,32.0,66,0.00,,,0.00,,2013-01-19 00:43:00,
2013-01-18 19:53:00,35.0,25.0,30.10,SSW,209,22.0,33.0,66,0.00,,,0.00,,2013-01-19 00:53:00,
2013-01-18 20:02:00,35.0,25.0,30.10,SSW,205,25.0,34.0,66,0.00,,,0.00,,2013-01-19 01:02:00,
2013-01-18 20:12:00,35.0,25.0,30.10,SSW,205,25.0,34.0,66,0.00,,,0.00,,2013-01-19 01:12:00,
2013-01-18 20:22:00,35.0,25.0,30.09,SSW,207,27.0,35.0,66,0.00,,,0.00,,2013-01-19 01:22:00,
2013-01-18 20:33:00,35.0,25.0,30.08,SW,214,24.0,39.0,67,0.00,,,0.00,,2013-01-19 01:33:00,
2013-01-18 20:42:00,35.0,25.0,30.08,SW,214,24.0,39.0,67,0.00,,,0.00,,2013-01-19 01:42:00,
2013-01-18 20:53:00,36.0,26.0,30.07,SSW,212,29.0,42.0,67,0.00,,,0.00,,2013-01-19 01:53:00,
2013-01-18 21:02:00,36.0,26.0,30.06,SSW,213,29.0,39.0,67,0.00,,,0.00,,2013-01-19 02:02:00,
2013-01-18 21:12:00,36.0,26.0,30.06,SSW,213,29.0,39.0,67,0.00,,,0.00,,2013-01-19 02:12:00,
2013-01-18 21:23:00,36.0,26.0,30.06,SW,215,29.0,46.0,66,0.00,,,0.00,,2013-01-19 02:23:00,
2013-01-18 21:33:00,36.0,26.0,30.05,SW,225,25.0,40.0,66,0.00,,,0.00,,2013-01-19 02:33:00,
2013-01-18 21:43:00,36.0,26.0,30.05,SW,225,25.0,40.0,66,0.00,,,0.00,,2013-01-19 02:43:00,
2013-01-18 21:53:00,36.0,26.0,30.05,SW,217,26.0,37.0,67,0.00,,,0.00,,2013-01-19 02:53:00,
2013-01-18 22:03:00,36.0,26.0,30.05,SW,217,26.0,37.0,67,0.00,,,0.00,,2013-01-19 03:03:00,
2013-01-18 22:12:00,36.0,26.0,30.05,SW,217,26.0,37.0,67,0.00,,,0.00,,2013-01-19 03:12:00,
2013-01-18 22:22:00,36.0,26.0,30.04,SW,215,27.0,37.0,68,0.00,,,0.00,,2013-01-19 03:22:00,
2013-01-18 22:33:00,36.0,26.0,30.05,SW,219,23.0,34.0,68,0.00,,,0.00,,2013-01-19 03:33:00,
2013-01-18 22:44:00,36.0,26.0,30.05,SW,219,23.0,34.0,68,0.00,,,0.00,,2013-01-19 03:44:00,
2013-01-18 22:53:00,36.0,26.0,30.06,SW,232,18.0,28.0,67,0.00,,,0.00,,2013-01-19 03:53:00,
2013-01-18 23:02:00,36.0,26.0,30.05,SW,221,20.0,25.0,68,0.00,,,0.00,,2013-01-19 04:02:00,
2013-01-18 23:12:00,36.0,26.0,30.05,SW,221,20.0,25.0,68,0.00,,,0.00,,2013-01-19 04:12:00,
2013-01-18 23:22:00,35.0,26.0,30.04,SW,227,19.0,24.0,70,0.00,,,0.00,,2013-01-19 04:22:00,
2013-01-18 23:32:00,35.0,26.0,30.04,SW,227,24.0,28.0,69,0.00,,,0.00,,2013-01-19 04:32:00,
2013-01-18 23:42:00,35.0,26.0,30.04,SW,227,24.0,28.0,69,0.00,,,0.00,,2013-01-19 04:42:00,
2013-01-18 23:53:00,36.0,27.0,30.04,SW,221,20.0,25.0,69,0.00,,,0.00,,2013-01-19 04:53:00,